Weather History for St. David's, Bermuda

Change the Weather History Date:

Tuesday, October 16, 2012

  Actual Average Record
Temperature  
Mean Temperature 74 °F -  
Max Temperature 79 °F 74 °F 82 °F (2000)
Min Temperature 69 °F 67 °F 69 °F (1996)
Cooling Degree Days 9    
Growing Degree Days 24 (Base 50)    
Moisture  
Dew Point 70 °F    
Average Humidity 83    
Maximum Humidity 94    
Minimum Humidity 70    
Precipitation  
Precipitation 1.65 in - - ()
Sea Level Pressure  
Sea Level Pressure 29.65 in    
Wind  
Wind Speed 18 mph ()    
Max Wind Speed 34 mph    
Max Gust Speed 51 mph    
Visibility 5.6 miles    
Events Rain    
Averages and records for this station are not official NWS values.
T = Trace of Precipitation, MM = Missing Value Source: Averaged Metar Reports

Daily Weather History Graph

Daily Weather History Graph

Search for Another Location

Airport:

Trip Planner

Search our weather history database for the weather conditions in past years. The results will help you decide how hot, cold, wet, or windy it might be!

Date:

Astronomy

Oct. 16, 2012 Rise Set
Actual Time 7:23 AM ADT 6:44 PM ADT
Civil Twilight 6:58 AM ADT 7:09 PM ADT
Nautical Twilight 6:30 AM ADT 7:37 PM ADT
Astronomical Twilight 6:01 AM ADT 8:05 PM ADT
Moon 8:34 AM ADT (10/16) 7:33 PM ADT (10/16)
Length of Visible Light 12h 10m
Length of Day
11h 20m
New Moon, 2% of the Moon is Illuminated
Oct 16
New Moon
Oct 22
First Quarter
Oct 29
Full
Nov 6
Last Quarter
Nov 13
New

Hourly Weather History & Observations

Time (ADT) Temp. Dew Point Humidity Pressure Visibility Wind Dir Wind Speed Gust Speed Precip Events Conditions
12:00 AM 79 °F 71 °F 70% 29.91 in 9 mi ESE 19.6 mph - -  
12:55 AM 78.8 °F 69.8 °F 74% 29.86 in 6.2 mi SE 17.3 mph - N/A   Mostly Cloudy
1:55 AM 78.8 °F 69.8 °F 74% 29.86 in 6.2 mi ESE 16.1 mph - N/A   Mostly Cloudy
2:36 AM 78.8 °F 71.6 °F 78% 29.86 in 6.2 mi SE 13.8 mph - N/A   Mostly Cloudy
2:55 AM 78.8 °F 71.6 °F 78% 29.86 in 6.2 mi SE 13.8 mph - N/A   Mostly Cloudy
3:00 AM 79 °F 71 °F 72% 29.86 in 9 mi SE 13.8 mph - -   Partly Cloudy
3:55 AM 78.8 °F 71.6 °F 78% 29.83 in 6.2 mi SE 17.3 mph - N/A   Overcast
4:55 AM 78.8 °F 73.4 °F 83% 29.80 in 6.2 mi SE 15.0 mph - N/A   Mostly Cloudy
5:55 AM 78.8 °F 71.6 °F 78% 29.80 in 6.2 mi ESE 17.3 mph - N/A   Overcast
6:00 AM 79 °F 72 °F 73% 29.80 in 9 mi ESE 17.3 mph - -   Overcast
6:55 AM 78.8 °F 71.6 °F 78% 29.80 in 6.2 mi ESE 15.0 mph - N/A   Overcast
7:55 AM 78.8 °F 73.4 °F 83% 29.77 in 6.2 mi ESE 16.1 mph - N/A   Overcast
8:55 AM 78.8 °F 71.6 °F 78% 29.77 in 6.2 mi ESE 13.8 mph - N/A   Overcast
9:00 AM 78 °F 72 °F 77% 29.80 in 9 mi ESE 13.8 mph - -   Overcast
9:55 AM 77.0 °F 68.0 °F 74% 29.77 in 6.2 mi ESE 25.3 mph 36.8 mph N/A Rain Light Rain Showers
10:55 AM 77.0 °F 71.6 °F 83% 29.77 in 6.2 mi ESE 17.3 mph - N/A Rain Light Rain
11:55 AM 77.0 °F 69.8 °F 78% 29.74 in 6.2 mi ESE 15.0 mph - N/A Rain Light Rain
12:00 PM 78 °F 71 °F 72% 29.76 in 9 mi ESE 15.0 mph - - Rain Light Rain
12:30 PM 78.8 °F 71.6 °F 78% 29.74 in 6.2 mi ESE 13.8 mph - N/A Rain Light Rain
12:55 PM 75.2 °F 68.0 °F 78% 29.74 in 6.2 mi ESE 18.4 mph 33.4 mph N/A Rain Light Rain
1:55 PM 75.2 °F 66.2 °F 73% 29.71 in 6.2 mi East 18.4 mph - N/A Rain Light Rain
2:55 PM 75.2 °F 68.0 °F 78% 29.65 in 6.2 mi ENE 13.8 mph - N/A Rain Light Rain
3:00 PM 74 °F 69 °F 79% 29.67 in 9 mi ENE 13.8 mph - - Rain Light Rain
3:55 PM 75.2 °F 69.8 °F 83% 29.62 in 5.0 mi NE 13.8 mph - N/A Rain Light Rain
4:25 PM 75.2 °F 71.6 °F 89% 29.59 in 3.7 mi NE 17.3 mph - N/A Rain Rain
4:55 PM 75.2 °F 73.4 °F 94% 29.56 in - NE 18.4 mph - N/A Rain Rain
5:36 PM 71.6 °F 68.0 °F 88% 29.56 in - ENE 27.6 mph - N/A Rain Rain
5:55 PM 71.6 °F 68.0 °F 88% 29.53 in 3.7 mi ENE 23.0 mph - N/A Rain Light Rain
6:00 PM 72 °F 68 °F 84% 29.56 in 4 mi ENE 23.0 mph - - Rain Light Rain
6:15 PM 71.6 °F 68.0 °F 88% 29.53 in - NE 23.0 mph - N/A Rain Rain
6:24 PM 71.6 °F 68.0 °F 88% 29.53 in 1.0 mi NE 26.5 mph 39.1 mph N/A Rain Rain
6:38 PM 69.8 °F 64.4 °F 83% 29.50 in 1.5 mi NE 26.5 mph 38.0 mph N/A Rain Rain
6:55 PM 69.8 °F 66.2 °F 88% 29.50 in 1.5 mi NE 26.5 mph 39.1 mph N/A Rain Rain
7:09 PM 69.8 °F 68.0 °F 94% 29.47 in 2.5 mi NE 26.5 mph 39.1 mph N/A Rain Rain
7:39 PM 71.6 °F 68.0 °F 88% 29.47 in - NNE 27.6 mph 41.4 mph N/A Rain Light Rain
7:55 PM 71.6 °F 68.0 °F 88% 29.47 in - NNE 31.1 mph 43.7 mph N/A Rain Light Rain
8:08 PM 69.8 °F 68.0 °F 94% 29.47 in - NNE 31.1 mph 44.9 mph N/A Rain Light Rain
8:27 PM 71.6 °F 69.8 °F 94% 29.44 in - NNE 31.1 mph 43.7 mph N/A Rain Rain
8:55 PM 71.6 °F 68.0 °F 88% 29.44 in 2.5 mi NNE 34.5 mph 50.6 mph N/A Rain Rain
9:00 PM 71 °F 69 °F 89% 29.45 in 2 mi NNE 34.5 mph - - Rain Rain
9:41 PM 71.6 °F 69.8 °F 94% 29.42 in 3.7 mi North 29.9 mph 50.6 mph N/A Rain Light Rain
9:55 PM 71.6 °F 69.8 °F 94% 29.42 in 5.0 mi NNE 28.8 mph 40.3 mph N/A Rain Light Rain
10:55 PM 73.4 °F 69.8 °F 88% 29.42 in 5.6 mi NNW 32.2 mph 47.2 mph N/A Rain Light Rain
11:55 PM 75.2 °F 69.8 °F 83% 29.44 in 6.2 mi NNW 29.9 mph 42.6 mph N/A   Overcast